Newport, RI

10:35 AM EDT on April 23, 2017 (GMT -0400)
Newport State

Weather History for KUUU - September, 2013

Change the Weather History Date:

Saturday, September 21, 2013

  Actual Average Record
Temperature  
Mean Temperature 63 °F -  
Max Temperature 72 °F 69 °F 82 °F (2016)
Min Temperature 55 °F 56 °F 40 °F (1962)
Degree Days  
Heating Degree Days 2    
Growing Degree Days 13 (Base 50)    
Moisture  
Dew Point 60 °F    
Average Humidity 89    
Maximum Humidity 100    
Minimum Humidity 75    
Precipitation  
Precipitation 0.00 in - - ()
Sea Level Pressure  
Sea Level Pressure 29.95 in    
Wind  
Wind Speed 6 mph (SSE)    
Max Wind Speed 18 mph    
Max Gust Speed 26 mph    
Visibility 8 miles    
Events      
Averages and records for this station are not official NWS values.
T = Trace of Precipitation, MM = Missing Value Source: NWS Daily Summary

Daily Weather History Graph

Daily Weather History Graph

Search for Another Location

Airport or City:

Trip Planner

Search our weather history database for the weather conditions in past years. The results will help you decide how hot, cold, wet, or windy it might be!

Date:

Astronomy

Sep. 21, 2013 Rise Set
Actual Time 6:31 AM EDT 6:43 PM EDT
Civil Twilight 6:04 AM EDT 7:11 PM EDT
Nautical Twilight 5:31 AM EDT 7:43 PM EDT
Astronomical Twilight 4:58 AM EDT 8:16 PM EDT
Moon 7:50 PM EDT (9/21) 8:49 AM EDT (9/21)
Length of Visible Light 13h 07m
Length of Day
12h 11m
Waning Gibbous, 94% of the Moon is Illuminated
Sep 21
Waning Gibbous
Sep 26
Last Quarter
Oct 4
New
Oct 11
First Quarter
Oct 18
Full

Hourly Weather History & Observations

Time (EDT) Temp. Dew Point Humidity Pressure Visibility Wind Dir Wind Speed Gust Speed Precip Events Conditions
12:53 AM 59.0 °F 57.9 °F 96% 30.04 in 10.0 mi South 5.8 mph - N/A   Clear
1:53 AM 60.1 °F 57.9 °F 93% 30.04 in 10.0 mi South 4.6 mph - N/A   Clear
2:53 AM 59.0 °F 57.9 °F 96% 30.02 in 10.0 mi Calm Calm - N/A   Mostly Cloudy
3:00 AM 59.0 °F 57.2 °F 94% 30.03 in 7.0 mi Calm Calm - N/A   Scattered Clouds
3:08 AM 57.2 °F 57.2 °F 100% 30.03 in 5.0 mi Calm Calm - N/A   Mostly Cloudy
3:53 AM 59.0 °F 57.0 °F 93% 30.03 in 6.0 mi Calm Calm - N/A   Mostly Cloudy
4:07 AM 59.0 °F 57.2 °F 94% 30.03 in 4.0 mi Calm Calm - N/A   Scattered Clouds
4:15 AM 57.2 °F 57.2 °F 100% 30.03 in 1.8 mi Calm Calm - N/A   Partly Cloudy
4:50 AM 57.2 °F 55.4 °F 94% 30.03 in 2.5 mi Calm Calm - N/A   Partly Cloudy
4:53 AM 57.0 °F 55.9 °F 96% 30.02 in 4.0 mi Calm Calm - N/A   Partly Cloudy
4:55 AM 57.2 °F 55.4 °F 94% 30.03 in 1.8 mi Calm Calm - N/A   Partly Cloudy
5:31 AM 55.4 °F 53.6 °F 94% 30.01 in 3.0 mi SSE 3.5 mph - N/A   Clear
5:53 AM 55.9 °F 55.9 °F 100% 30.00 in 5.0 mi SSE 5.8 mph - N/A   Clear
6:53 AM 61.0 °F 57.9 °F 90% 30.00 in 10.0 mi SSE 5.8 mph - N/A   Clear
7:53 AM 64.0 °F 59.0 °F 84% 30.00 in 10.0 mi South 8.1 mph - N/A   Clear
8:53 AM 66.0 °F 60.1 °F 81% 30.00 in 10.0 mi South 9.2 mph - N/A   Clear
9:27 AM 66.2 °F 59.0 °F 78% 30.00 in 10.0 mi South 10.4 mph - N/A   Mostly Cloudy
9:53 AM 66.0 °F 60.1 °F 81% 30.00 in 10.0 mi SSE 8.1 mph - N/A   Overcast
10:08 AM 66.2 °F 60.8 °F 83% 30.00 in 10.0 mi SSE 8.1 mph - N/A   Overcast
10:53 AM 66.9 °F 62.1 °F 84% 29.98 in 10.0 mi SSE 11.5 mph - N/A   Overcast
11:53 AM 68.0 °F 63.0 °F 84% 29.95 in 10.0 mi SSE 12.7 mph 21.9 mph N/A   Overcast
12:53 PM 71.1 °F 64.0 °F 78% 29.93 in 10.0 mi SSE 12.7 mph 21.9 mph N/A   Mostly Cloudy
1:53 PM 71.1 °F 63.0 °F 75% 29.91 in 10.0 mi South 11.5 mph 19.6 mph N/A   Overcast
2:53 PM 71.1 °F 64.0 °F 78% 29.89 in 10.0 mi South 11.5 mph 18.4 mph N/A   Overcast
3:53 PM 70.0 °F 64.0 °F 81% 29.87 in 10.0 mi South 13.8 mph 21.9 mph N/A   Scattered Clouds
4:53 PM 70.0 °F 64.0 °F 81% 29.85 in 10.0 mi SSE 12.7 mph 23.0 mph N/A   Clear
5:53 PM 69.1 °F 64.0 °F 84% 29.84 in 10.0 mi SSE 12.7 mph - N/A   Mostly Cloudy
6:53 PM 66.9 °F 64.0 °F 90% 29.83 in 10.0 mi SSE 11.5 mph - N/A   Partly Cloudy
7:53 PM 66.9 °F 64.0 °F 90% 29.83 in 10.0 mi SSE 11.5 mph - N/A   Mostly Cloudy
8:53 PM 66.9 °F 64.0 °F 90% 29.81 in 10.0 mi SSE 10.4 mph - N/A   Overcast
9:18 PM 66.2 °F 64.4 °F 94% 29.81 in 10.0 mi SSE 10.4 mph - N/A   Overcast
9:53 PM 66.9 °F 64.9 °F 93% 29.79 in 10.0 mi South 11.5 mph 18.4 mph N/A   Mostly Cloudy
10:53 PM 68.0 °F 64.9 °F 90% 29.78 in 10.0 mi South 12.7 mph 19.6 mph N/A   Mostly Cloudy
11:53 PM 68.0 °F 64.9 °F 90% 29.76 in 10.0 mi South 18.4 mph 26.5 mph N/A   Partly Cloudy